sat.trackr.live / text

‹ back to catalog

STARLINK-5295

NORAD 55306 · 2023-010AP

PAYLOAD ACTIVE UNKNOWN

§ Identity

Operator
Country
US
Launch date
2023-01-19
Launch site
AFWTR
Launch vehicle
Mass (kg)
RCS (m²)

Purposes: comms

External: N2YO · Heavens-Above · Gunter

§ Orbital elements

Epoch: 2026-05-25T03:52:07.940064Z

Period
96.11 min
Inclination
69.9984°
Eccentricity
0.0003358
Mean motion
14.98330707 rev/d
Perigee alt
569.7 km
Apogee alt
574.4 km
Semi-major
6,950.2 km
B*
2.0004e-5
RAAN
171.7775°
Arg perigee
269.6249°
Mean anomaly
90.4525°
Rev number
18,522

§ Raw data

STARLINK-52951 55306U 23010AP  26145.16120301  .00000146  00000+0  20004-4 0  99972 55306  69.9984 171.7775 0003358 269.6249  90.4525 14.98330707185223

JSON: /api/v1/satellites/55306 · /tle

For live sub-satellite position, see the globe view (requires WebGL).

§ Visibility from observer

Set your observer location to see the next 7 days of passes ≥ 10°. The values pass through the URL so the page stays shareable.

No JS? Fill the form by hand. The geolocation button needs JavaScript.